NOAA 16 DEB, 41292

Orbit data source: Space-Track

NOAA 16 DEB, 41292 is space debris in SSO originally from a launch on Thu, 21 Sep 2000 UTC launched from the Air Force Western Test Range (AFWTR). Debris objects in space refer to the collection of defunct objects orbiting the Earth. Examples of debris include non-operational satellites, rocket bodies, and fragments generated from explosions, collisions, or faulty payload assembly.

Loading next visibility...
Identifier
41292, 2000-055GU
Orbit
SSO
Country
Flag of USUS
Related business
Manufacturer
Unknown
Mission
Spacecraft
Bus & Motor
Unknown
Mass
Unknown
Launch date (UTC)
2000-09-21 (26 years ago)
Launch vehicle
Unknown
Launch site
Air Force Western Test Range (AFWTR)
Object type
Payload
Rocket body
Debris
Shape & HBR
Unknown shape, 0.1 m
Radar Cross Section
Medium (>0.1 m² and <1 m²)

Expand to show TLE details & history
Last TLE update: 13 hours ago

TLE from 13 hours ago
0 NOAA 16 DEB
1 41292U 00055GU  26193.88119242  .00004601  00000-0  97553-3 0  9997
2 41292  98.9648  72.9201 0030587 310.1109  49.7408 14.59439673551580
Epoch: 2026-07-12T21:08Z
TLE epoch observation values (Epoch: 2026-07-12T21:08:55.025Z)
Latitude
-0.00004°
Longitude
-175.08286°
Altitude
683.998 km
Speed
7.522 km/s
True Right ascension
04h 51m 40s
True Declination
0° 00' 00"
Sunlit
Object was in daylight at epoch
Visualization orbit readout
Latitude
Unknown
Longitude
Unknown
Altitude
Unknown
Speed
Unknown
Apparent Right ascension
Unknown
Apparent Declination
Unknown
Sunlit
N/A
Visualization observer readout
Local Sidereal Time
22:29:53
Azimuth
Unknown
Elevation
Unknown
Doppler factor
Unknown
Orbital elements
Apogee altitude
713.728 km
Perigee altitude
670.477 km
Semi-major axis
7,070.239 km
Eccentricity
0.00306
Inclination
98.9648°
RAAN
72.9201°
Arg. of periapsis
310.1109°
True anomaly
50.00894°
Mean anomaly
49.7408°
Eccentric anomaly
49.8748°
Mean motion
3.65083 °/min
Orbital period
98.61 mins
BSTAR
0.00097553
Loading maneuver chart data...
Computing Atmospheric mass density...
Loading historical data...
Loading historical data...
Loading historical data...
Loading historical data...
Loading historical data...
Loading historical data...
Loading historical data...

Documentation

Showing up to 5 results
|